CAPE
1 4 1 1 0 2 0 0 0 0 0 0 0 0 0 0 0 0 0 0 0 0 0 0 0 0 0 0 0 0 0 0 0 0 0 0 0 0 0 0 0 0 0 0 0 0 0
0 0 1 0 0 0 1 0 0 0 0 0 0 0 0 0 0 0 0 0 0 0 0 0 0 0 0 0 0 0 0 0 0 0 0 0 0 0 0 0 0 0 0 0 0 0 0
0 0 0 0 0 1 0 0 0 0 0 0 0 0 0 0 0 0 0 0 0 0 0 0 0 0 0 0 0 0 0 0 0 0 0 0 0 0 0 0 0 0 0 0 0 0 0
2 0 0 0 0 0 0 0 0 0 0 0 0 0 0 0 0 0 0 0 0 0 0 0 0 0 0 0 0 0 0 0 0 0 0 0 0 0 0 0 0 0 0 0 0 0 0
0 2 0 0 0 0 0 0 0 0 0 0 0 0 0 0 0 0 0 0 0 0 0 0 0 0 0 0 0 0 0 0 0 0 0 0 0 0 0 0 0 0 0 0 0 0 0
2 2 2 2 0 0 0 0 0 0 0 0 0 0 0 0 0 0 0 0 0 0 0 0 0 0 0 0 0 0 0 0 0 0 0 0 0 0 0 0 0 0 0 0 0 0 0
3 2 3 3 0 0 0 0 0 0 0 0 0 0 0 0 0 0 0 0 0 0 0 0 0 0 0 0 0 0 0 0 0 0 0 0 0 0 0 0 0 0 0 0 0 0 0
3 3 3 3 1 0 0 2 1 0 0 0 0 0 0 0 0 0 0 0 0 0 0 0 0 0 0 0 0 0 0 0 0 0 0 0 0 0 0 0 0 0 0 0 0 0 0
2 3 4 5 4 0 4 7 4 0 0 0 0 0 0 0 0 0 0 0 0 0 0 0 0 0 0 0 0 0 0 0 0 0 0 0 0 0 0 0 0 0 0 0 0 0 0
1 2 3 5 2 1 9 9 5 0 0 0 0 0 0 0 0 0 0 0 0 0 0 0 0 0 0 0 0 0 0 0 0 0 0 0 0 0 0 0 0 0 0 0 0 0 0
1 1 3 4 7 4 10 4 5 0 0 0 0 0 0 0 0 0 0 0 0 0 0 0 0 0 0 0 0 0 0 0 0 0 0 0 0 0 0 0 0 0 0 0 0 0 0
1 2 2 8 11 2 1 3 5 0 0 0 0 0 0 0 0 0 0 0 0 0 0 0 0 0 0 0 0 0 0 0 0 0 0 0 0 0 0 0 0 0 0 0 0 0 0
2 3 8 5 6 3 5 10 0 0 0 0 0 0 0 0 0 0 0 0 0 0 0 0 0 0 0 0 0 0 0 0 0 0 0 0 0 0 0 0 0 0 0 0 0 0 0
3 2 3 7 5 6 11 7 0 1 0 0 0 0 0 0 0 0 0 0 0 0 0 0 0 0 0 0 0 0 0 0 0 0 0 0 0 0 0 0 0 0 0 0 0 0 0
6 5 11 11 13 23 15 1 1 5 0 0 0 0 0 0 0 0 0 0 0 0 0 0 0 0 0 0 0 0 0 0 0 0 0 0 0 0 0 0 0 0 0 0 1 0 1
17 24 20 30 29 16 2 1 8 0 0 0 0 0 0 0 0 0 0 0 0 0 0 0 0 0 0 0 0 0 0 0 0 0 0 0 0 0 0 0 0 0 0 0 0 0 0
25 42 39 30 23 15 26 12 0 0 0 0 0 0 0 0 0 0 0 0 0 0 0 0 0 0 0 0 0 0 0 0 0 0 0 0 0 0 0 0 0 0 0 0 0 0 9
30 31 26 19 15 9 12 10 3 0 0 0 0 0 0 0 0 0 0 0 0 0 0 0 0 0 0 0 0 0 0 0 0 0 0 0 0 0 0 0 0 0 0 0 0 0 0
16 13 13 11 0 12 17 5 0 0 0 0 1 0 0 0 0 0 0 0 0 0 0 0 0 0 0 0 0 0 0 0 0 0 0 0 0 0 0 0 0 0 0 0 1 0 1
26 35 35 9 1 27 6 5 0 0 0 0 2 0 0 0 0 0 0 0 0 0 0 0 0 0 0 0 0 0 0 0 0 0 0 0 0 0 0 0 0 0 0 0 0 0 0
15 8 18 25 12 2 3 0 2 0 0 0 0 0 0 0 0 0 0 0 0 0 0 0 0 0 0 0 0 0 0 0 0 0 0 0 0 0 0 0 0 0 0 0 0 0 0
9 10 16 9 0 3 10 2 3 0 0 0 0 3 0 0 0 0 0 0 0 0 0 0 0 0 0 0 0 0 0 0 0 0 0 0 0 0 0 0 0 0 0 0 3 1 0
5 7 11 9 13 15 0 0 1 0 0 0 0 0 0 0 0 0 0 0 0 0 0 0 0 0 0 0 0 0 0 0 0 0 0 0 0 0 0 0 0 1 0 0 1 1 1
9 3 1 4 7 8 7 3 0 0 0 0 0 0 0 0 0 0 0 0 0 0 0 0 0 0 0 0 0 0 0 0 0 0 0 0 0 0 0 0 0 0 0 0 2 0 3
5 6 3 5 9 5 2 0 0 0 0 0 0 0 0 0 0 0 0 0 0 0 0 0 0 0 0 0 0 0 0 0 0 0 0 0 0 0 0 0 0 0 0 0 3 0 2
8 8 5 0 0 0 0 0 0 0 0 0 0 0 0 0 0 0 0 0 0 0 0 0 0 0 0 0 0 0 0 0 0 0 0 0 0 0 0 0 0 0 0 0 0 0 0
10 3 5 4 3 5 0 0 0 0 0 0 0 0 0 0 0 0 0 0 0 0 0 0 0 0 0 0 0 0 0 0 0 0 0 0 0 0 0 0 0 0 0 0 0 0 0
15 4 0 2 0 0 1 0 0 0 0 0 0 0 0 0 0 0 0 0 0 0 0 0 0 0 0 0 0 0 0 0 0 0 0 0 0 0 0 0 0 0 0 0 0 1 0
16 13 7 1 6 1 0 0 0 0 0 0 0 0 0 0 0 0 0 0 0 0 0 0 0 0 0 0 0 0 0 0 0 0 0 0 0 0 0 0 0 0 1 1 1 2 1
CIN
-3 0 -1 -1 0 -2 0 0 0 0 0 0 0 0 0 0 0 0 0 0 0 0 0 0 0 0 0 0 0 0 0 0 0 0 0 0 0 0 0 0 0 0 0 0 0 0 0
0 -1 -1 0 0 -1 0 0 0 0 0 0 0 0 0 0 0 0 0 0 0 0 0 0 0 0 0 0 0 0 0 0 0 0 0 0 0 0 0 0 0 0 0 0 0 0 0
0 0 0 0 0 -1 0 0 0 0 0 0 0 0 0 0 0 0 0 0 0 0 0 0 0 0 0 0 0 0 0 0 0 0 0 0 0 0 0 0 0 0 0 0 0 0 0
0 0 0 0 0 0 0 0 0 0 0 0 0 0 0 0 0 0 0 0 0 0 0 0 0 0 0 0 0 0 0 0 0 0 0 0 0 0 0 0 0 0 0 0 0 0 0
0 0 0 0 0 0 0 0 0 0 0 0 0 0 0 0 0 0 0 0 0 0 0 0 0 0 0 0 0 0 0 0 0 0 0 0 0 0 0 0 0 0 0 0 0 0 0
0 0 0 0 0 0 0 0 0 0 0 0 0 0 0 0 0 0 0 0 0 0 0 0 0 0 0 0 0 0 0 0 0 0 0 0 0 0 0 0 0 0 0 0 0 0 0
0 0 0 0 0 0 0 0 0 0 0 0 0 0 0 0 0 0 0 0 0 0 0 0 0 0 0 0 0 0 0 0 0 0 0 0 0 0 0 0 0 0 0 0 0 0 0
0 0 0 0 0 0 0 0 0 0 0 0 0 0 0 0 0 0 0 0 0 0 0 0 0 0 0 0 0 0 0 0 0 0 0 0 0 0 0 0 0 0 0 0 0 0 0
0 0 0 0 0 0 0 0 0 0 0 0 0 0 0 0 0 0 0 0 0 0 0 0 0 0 0 0 0 0 0 0 0 0 0 0 0 0 0 0 0 0 0 0 0 0 0
0 0 0 0 0 0 0 0 0 0 0 0 0 0 0 0 0 0 0 0 0 0 0 0 0 0 0 0 0 0 0 0 0 0 0 0 0 0 0 0 0 0 0 0 0 0 0
0 0 0 0 0 0 0 0 0 0 0 0 0 0 0 0 0 0 0 0 0 0 0 0 0 0 0 0 0 0 0 0 0 0 0 0 0 0 0 0 0 0 0 0 0 0 0
0 0 0 0 0 0 0 0 0 0 0 0 0 0 0 0 0 0 0 0 0 0 0 0 0 0 0 0 0 0 0 0 0 0 0 0 0 0 0 0 0 0 0 0 0 0 0
0 0 0 0 0 0 0 0 0 0 0 0 0 0 0 0 0 0 0 0 0 0 0 0 0 0 0 0 0 0 0 0 0 0 0 0 0 0 0 0 0 0 0 0 0 0 0
0 0 0 0 0 0 0 0 0 0 0 0 0 0 0 0 0 0 0 0 0 0 0 0 0 0 0 0 0 0 0 0 0 0 0 0 0 0 0 0 0 0 0 0 0 0 0
0 0 0 0 0 0 0 0 0 0 0 0 0 0 0 0 0 0 0 0 0 0 0 0 0 0 0 0 0 0 0 0 0 0 0 0 0 0 0 0 0 0 0 0 -1 0 0
0 0 0 0 0 0 -3 -1 0 0 0 0 0 0 0 0 0 0 0 0 0 0 0 0 0 0 0 0 0 0 0 0 0 0 0 0 0 0 0 0 0 0 0 0 0 0 0
0 0 0 0 0 0 0 0 0 0 0 0 0 0 0 0 0 -50 0 0 0 0 0 0 0 0 0 0 0 0 0 0 0 0 0 0 0 0 0 0 0 0 0 0 0 0 -4
0 0 0 0 0 0 0 0 0 0 0 0 0 -4 0 0 0 0 0 0 0 0 0 0 0 0 0 0 0 0 0 0 0 0 0 0 0 0 0 0 0 0 0 0 0 0 0
0 0 0 -1 0 -5 -5 0 0 0 0 0 -119 0 0 0 0 0 0 0 0 0 0 0 0 0 0 0 0 0 0 0 0 0 0 0 0 0 0 0 0 0 0 0 0 -1 -1
0 0 0 0 0 -7 -1 -1 0 0 0 0 -49 0 0 0 0 0 -41 0 0 0 0 0 0 0 0 0 0 0 0 0 0 0 0 0 0 0 0 0 0 0 0 0 0 0 0
-2 -5 -4 -1 -16 -1 -1 0 0 0 0 0 -116 -25 0 0 0 0 0 0 0 0 0 0 0 0 0 0 0 0 0 0 0 0 0 0 0 0 0 0 0 0 0 0 0 0 0
-5 -4 -2 -5 0 -1 0 0 0 0 0 0 -13 -98 0 0 0 0 0 0 0 0 0 0 0 0 0 0 0 0 0 0 0 0 0 0 0 0 0 0 0 0 0 0 0 0 0
-4 -7 -10 -13 -24 -46 0 0 -1 0 0 0 0 0 0 0 0 0 0 0 0 0 0 0 0 0 0 0 0 0 0 0 0 0 0 0 0 0 0 0 0 -6 0 0 0 0 0
-2 -1 -2 -3 -2 -2 -3 -2 0 0 0 0 0 0 0 0 0 0 0 0 0 0 0 0 0 0 0 0 0 0 0 0 0 0 0 0 0 0 0 0 0 0 0 0 0 0 0
-1 -1 -2 -3 -4 -2 -5 0 0 0 0 0 0 0 0 0 0 0 0 0 0 0 0 0 0 0 0 0 0 0 0 0 0 0 0 0 0 -11 0 0 0 0 0 0 0 0 0
-1 -2 -4 0 0 -1 0 0 0 0 0 0 0 0 0 0 0 0 0 0 0 0 0 0 0 0 0 0 0 0 0 0 0 0 0 0 0 0 0 0 0 0 0 0 0 0 0
-1 -2 -1 -5 -23 -30 0 0 0 0 0 0 0 0 0 0 0 0 0 0 0 0 0 0 0 0 0 0 0 0 0 0 -3 0 0 0 0 0 0 0 0 0 0 0 0 0 0
0 -2 -1 -1 -2 0 -49 0 0 0 0 0 0 0 0 0 0 0 0 0 0 0 0 0 0 0 0 0 0 0 0 0 0 -2 0 0 0 0 0 0 0 0 0 0 0 -1 0
0 0 0 -1 -1 -9 0 0 0 0 0 0 0 0 0 0 0 0 0 0 0 0 0 0 0 0 0 0 0 0 0 0 0 0 0 0 0 0 0 0 0 -1 0 -1 0 0 0
Wind_Speed
24 22 20 19 18 18 17 18 19 19 19 21 24 25 27 27 27 29 29 29 29 30 30 29 29 29 21 19 19 19 20 21 20 21 22 23 22 24 26 27 31 31 32 35 39 39 38
25 23 22 21 19 19 18 18 18 19 19 20 23 26 27 27 28 29 30 30 30 31 30 29 28 28 20 21 15 20 22 23 21 22 23 23 23 24 26 27 29 30 39 42 40 42 40
26 25 23 22 20 18 17 17 17 18 19 21 24 25 27 27 28 29 30 31 31 31 30 29 27 22 20 18 15 21 22 20 21 23 25 23 23 25 27 32 25 34 42 44 40 38 40
29 26 24 21 19 17 15 16 17 17 18 19 21 26 27 28 27 27 30 31 32 32 29 25 23 19 20 17 18 22 20 22 23 25 23 22 20 22 23 25 30 34 34 42 35 36 36
32 29 26 24 20 18 16 14 14 16 16 18 23 23 26 27 28 29 30 32 32 27 20 22 20 18 19 14 19 21 21 23 25 25 23 22 18 23 26 32 35 31 41 42 53 36 42
35 33 29 26 23 20 16 15 13 14 17 17 19 24 26 28 27 29 31 31 22 21 18 18 19 20 18 17 20 24 21 22 23 23 21 26 22 26 29 35 39 42 46 45 46 48 47
39 35 33 29 25 22 18 16 13 14 15 16 19 23 27 27 28 28 27 19 19 19 17 17 16 17 18 21 19 17 21 21 22 23 26 26 27 30 32 33 35 39 43 48 54 51 51
42 38 34 31 28 24 20 16 14 15 15 15 16 19 21 27 27 26 17 17 17 18 21 18 18 18 17 16 20 20 20 21 24 27 29 28 24 31 32 35 39 42 48 51 56 51 51
44 41 38 33 29 25 22 18 16 16 13 15 13 13 18 21 23 18 14 15 16 17 20 18 15 16 14 14 19 19 19 21 25 27 32 29 27 30 37 40 43 45 45 50 52 61 60
46 43 38 35 30 27 22 18 16 16 15 12 11 9 13 18 14 17 17 15 16 15 20 17 15 14 13 15 18 17 16 21 24 27 30 25 29 37 41 42 42 47 43 47 54 55 57
47 44 40 35 31 26 23 19 15 14 13 12 11 10 12 11 13 14 15 16 14 14 26 10 11 9 12 14 15 17 20 22 27 29 26 27 36 41 41 38 41 42 45 49 48 49 51
46 43 39 35 31 26 23 18 16 15 14 13 12 12 11 8 9 13 14 13 12 17 25 12 10 10 14 15 14 16 21 23 23 26 26 30 32 30 33 38 37 38 41 45 39 34 36
41 39 36 31 28 25 21 19 16 15 13 13 13 10 9 9 10 12 11 11 17 21 8 13 12 10 15 15 15 19 22 26 27 32 34 36 24 29 27 49 35 35 39 41 37 33 33
38 37 33 30 27 22 20 17 15 14 12 11 13 12 11 10 10 11 9 13 20 16 13 11 9 10 14 11 16 20 22 25 23 25 32 35 36 34 33 34 32 38 28 33 33 40 26
29 31 28 28 25 21 19 15 14 14 11 11 12 12 12 8 7 9 12 19 18 15 12 9 11 14 12 16 16 19 23 20 21 24 27 32 28 37 31 25 28 24 30 28 29 22 26
19 22 24 21 21 18 15 16 13 12 11 10 11 12 13 8 7 9 12 19 13 11 10 12 15 14 14 15 17 19 21 19 23 22 22 26 36 32 29 28 19 19 31 34 31 30 33
17 17 17 16 15 13 11 11 11 10 8 11 13 14 11 9 8 10 14 13 12 10 12 15 15 15 15 15 16 18 17 21 20 22 25 28 27 34 30 24 19 25 30 21 13 17 32
12 13 12 14 11 10 11 10 10 8 9 8 14 17 11 11 11 11 13 12 9 12 14 14 14 14 14 15 16 17 16 18 23 24 27 24 27 33 30 17 23 25 30 8 23 23 24
8 8 7 9 9 10 9 8 8 9 10 11 12 11 13 13 15 14 12 12 13 11 12 13 14 13 12 13 15 14 16 20 23 25 28 26 27 37 29 18 20 33 29 30 15 14 33
9 8 9 8 8 9 8 8 9 9 11 11 13 16 15 16 16 13 13 14 14 12 12 12 11 12 14 14 14 16 19 19 24 25 23 23 22 22 20 15 32 30 33 28 22 23 25
6 7 7 8 9 8 8 9 11 10 10 11 15 17 15 18 16 14 16 15 12 14 12 10 13 13 12 14 16 18 20 23 25 23 22 22 22 19 14 13 30 29 28 30 33 32 16
7 7 8 9 8 8 7 8 11 11 10 13 14 14 13 10 12 16 16 15 13 12 9 11 9 10 13 14 16 20 22 23 22 21 22 20 22 19 14 29 27 28 22 16 28 31 24
6 6 6 8 8 6 7 8 10 12 13 14 13 12 13 14 11 13 15 13 12 9 12 8 7 10 15 17 18 20 19 19 17 20 21 19 19 19 13 27 28 19 26 26 26 31 25
5 6 5 6 6 6 7 8 10 12 10 10 11 12 12 12 11 12 11 12 13 13 9 9 10 13 13 17 24 24 18 15 13 13 11 16 15 11 16 27 20 20 27 25 23 24 28
5 5 6 6 6 7 7 8 10 13 14 11 13 14 12 12 13 12 13 11 8 10 12 13 14 13 13 18 21 20 21 20 20 21 17 12 13 11 16 24 26 22 28 29 27 21 28
6 6 5 6 6 6 7 8 11 12 11 13 12 12 12 10 13 15 14 9 11 12 13 14 18 8 13 16 17 19 19 20 20 21 18 19 14 15 18 22 23 23 31 28 21 20 29
10 7 6 7 6 5 7 9 10 12 12 14 13 13 12 12 14 14 12 12 12 10 10 12 12 11 13 15 18 17 18 18 20 21 19 19 17 18 23 24 20 25 30 26 19 22 27
13 12 11 9 10 8 6 5 6 8 10 13 13 13 13 13 14 14 13 11 11 10 8 11 10 13 14 15 16 17 18 18 18 18 17 16 16 20 23 23 24 27 25 21 24 25 24
17 12 10 10 10 8 7 5 4 9 9 12 13 14 13 14 14 17 18 15 12 12 9 12 11 13 13 14 15 15 17 18 19 19 15 15 18 22 22 23 22 22 22 23 23 24 23
Wind_Direction
273 276 279 283 288 292 297 302 307 311 314 314 314 315 314 314 313 310 308 310 310 310 310 313 316 319 328 320 321 338 337 338 341 341 337 334 332 325 315 315 312 305 306 304 303 302 300
265 267 271 275 280 284 291 297 302 305 308 312 312 311 311 311 312 309 307 306 306 305 307 310 315 317 321 309 335 336 333 332 338 336 331 332 326 327 318 317 313 312 307 303 304 300 300
256 259 264 266 272 274 282 291 296 303 306 307 307 308 308 311 311 309 307 303 302 301 305 310 315 321 317 314 332 332 333 336 337 334 328 327 327 322 321 316 324 315 306 304 302 304 302
251 253 254 256 260 263 272 284 290 299 303 307 307 306 306 308 313 315 308 303 301 302 306 313 319 321 312 326 330 326 332 327 334 329 327 325 334 329 327 325 321 315 312 306 310 312 310
248 248 248 252 253 257 265 274 285 292 302 306 304 308 304 306 310 310 305 304 301 308 321 313 319 320 312 335 318 323 335 328 327 332 334 332 331 327 327 319 318 316 310 307 303 315 308
245 245 244 246 246 249 255 269 277 287 298 304 306 306 302 301 307 304 304 301 313 317 322 321 313 310 312 319 315 316 333 334 334 334 334 335 332 325 324 322 315 313 310 308 306 304 308
245 242 240 239 240 243 247 256 262 279 296 303 310 306 298 302 300 303 307 313 313 312 313 312 319 312 314 315 321 332 336 332 338 337 333 333 328 325 325 323 320 317 314 310 305 306 305
244 239 234 234 233 240 242 247 258 275 289 300 305 306 305 296 298 303 313 310 312 317 309 310 309 308 314 323 313 320 337 333 333 331 332 332 331 330 329 328 323 321 317 311 307 308 306
239 236 232 230 231 232 238 247 258 273 282 290 303 308 300 303 301 302 312 310 321 317 310 310 308 312 319 325 316 321 335 333 332 330 330 331 332 334 331 328 325 319 317 314 310 307 302
234 229 225 223 224 228 233 239 255 266 276 281 297 303 310 307 302 294 293 310 323 320 308 308 306 310 318 323 318 332 342 338 333 330 335 341 337 333 329 326 326 319 323 318 313 312 307
231 223 219 217 219 221 226 234 248 256 269 277 287 297 306 316 301 286 296 311 320 319 297 316 316 347 327 322 327 331 342 336 330 331 339 336 334 332 330 331 329 323 324 320 317 312 310
224 219 213 215 212 216 223 234 245 250 260 266 280 292 303 309 304 294 307 313 322 299 292 304 317 316 320 319 328 337 338 343 341 338 339 337 337 340 337 337 335 332 330 327 320 320 318
214 211 208 209 206 211 221 229 240 246 250 260 269 284 285 294 288 302 310 307 290 286 308 298 302 313 318 319 329 333 335 338 340 335 335 339 352 350 351 338 345 346 339 337 338 337 327
202 199 201 205 209 213 218 224 233 238 242 254 264 275 272 278 300 305 299 285 281 298 285 313 315 320 318 329 330 333 334 337 345 347 339 341 340 348 345 343 341 342 352 342 335 335 303
188 196 194 199 205 209 212 220 227 228 237 248 260 260 267 278 294 293 275 271 282 294 299 299 310 311 319 326 328 333 335 341 348 348 345 342 343 340 345 353 346 351 349 349 341 341 345
175 179 181 190 196 205 215 222 211 220 230 240 238 246 260 277 289 275 274 277 293 300 307 305 302 310 311 321 326 333 338 345 345 351 353 346 335 347 350 349 7 354 340 347 355 352 345
148 169 171 171 193 195 197 200 210 209 210 230 238 244 256 275 273 269 270 284 297 303 302 304 305 307 314 319 329 332 338 344 357 350 350 345 345 342 351 353 349 346 352 3 358 2 302
158 173 183 191 170 178 196 200 206 190 208 221 238 249 254 260 256 269 268 283 288 290 304 308 309 312 316 325 329 334 337 344 349 352 346 353 347 344 344 355 312 335 294 350 359 283 271
159 167 165 192 179 173 173 187 186 194 204 225 236 251 263 258 253 258 273 276 283 291 304 308 309 317 329 329 332 336 340 346 350 349 347 352 350 344 351 7 329 302 293 292 289 303 264
128 140 143 158 154 165 169 187 197 198 219 240 247 249 258 256 264 258 263 266 276 296 305 313 316 328 327 329 336 338 336 347 345 345 351 352 348 345 343 337 277 279 294 296 357 302 271
130 132 132 146 154 170 186 202 206 210 226 250 256 251 250 249 248 256 265 268 273 289 303 312 310 314 324 328 330 331 337 338 340 345 354 354 345 343 335 297 271 279 302 315 331 334 301
127 119 127 142 155 162 176 195 213 217 229 253 246 247 257 265 252 251 262 269 278 292 297 303 311 327 332 330 334 333 337 339 343 350 349 352 346 348 339 273 273 282 298 294 337 340 312
140 144 130 137 145 161 190 196 210 218 241 249 259 262 254 257 256 258 259 270 281 297 318 317 322 324 322 327 335 335 336 335 335 338 346 352 353 354 344 289 283 278 312 306 320 341 324
131 171 187 175 169 174 194 203 213 222 250 250 262 255 255 259 264 267 266 275 280 287 293 322 335 329 337 336 327 332 338 346 357 357 360 348 345 352 331 279 287 298 324 308 301 318 330
171 162 146 175 189 205 210 211 221 226 241 252 257 257 261 256 265 269 272 276 290 301 304 307 319 331 345 342 338 343 349 356 2 13 22 23 18 1 330 283 273 295 315 311 301 294 328
200 208 175 193 193 203 209 215 229 230 239 247 261 262 263 254 268 271 273 273 280 292 301 312 308 352 346 346 346 342 346 351 353 356 11 14 14 345 313 289 273 287 306 301 282 293 325
152 157 202 149 174 176 205 217 225 229 233 242 251 259 258 257 269 272 274 281 296 304 311 318 330 333 344 341 338 342 345 353 348 351 356 5 4 339 292 277 278 301 305 303 308 283 307
225 154 145 150 138 148 151 190 216 227 230 240 254 265 262 264 270 273 279 292 308 318 323 324 330 329 336 335 339 340 343 349 352 357 4 5 355 325 294 285 272 309 315 317 304 300 303
236 220 193 163 161 180 170 185 206 232 237 249 256 266 271 268 276 274 276 287 296 301 321 322 333 335 340 342 343 348 343 347 347 346 6 354 336 310 296 288 297 306 315 310 307 305 300